Weather History for KAQP - January, 2012

Change the Weather History Date:

Thursday, January 19, 2012

  Actual Average Record
Temperature  
Mean Temperature -5 °F -  
Max Temperature 3 °F 17 °F 46 °F (2015)
Min Temperature -13 °F 1 °F -20 °F (2008)
Degree Days  
Heating Degree Days 70    
Moisture  
Dew Point -19 °F    
Average Humidity 56    
Maximum Humidity 71    
Minimum Humidity 33    
Precipitation  
Precipitation 0.00 in - - ()
Sea Level Pressure  
Sea Level Pressure 30.14 in    
Wind  
Wind Speed 11 mph (WNW)    
Max Wind Speed 17 mph    
Max Gust Speed 23 mph    
Visibility 10 miles    
Events      
Averages and records for this station are not official NWS values.
T = Trace of Precipitation, MM = Missing Value Source: NWS Daily Summary

Daily Weather History Graph

Daily Weather History Graph

Search for Another Location

Airport or City:

Trip Planner

Search our weather history database for the weather conditions in past years. The results will help you decide how hot, cold, wet, or windy it might be!

Date:

Astronomy

Jan. 19, 2012 Rise Set
Actual Time 7:57 AM CST 5:12 PM CST
Civil Twilight 7:24 AM CST 5:45 PM CST
Nautical Twilight 6:48 AM CST 6:21 PM CST
Astronomical Twilight 6:13 AM CST 6:56 PM CST
Moon 4:37 AM CST (1/19) 1:42 PM CST (1/19)
Length of Visible Light 10h 20m
Length of Day
9h 15m
Waning Crescent, 15% of the Moon is Illuminated
Jan 19
Waning Crescent
Jan 23
New
Jan 30
First Quarter
Feb 7
Full
Feb 14
Last Quarter

Hourly Weather History & Observations

Time (CST) Temp. Windchill Dew Point Humidity Pressure Visibility Wind Dir Wind Speed Gust Speed Precip Events Conditions
12:15 AM -7.6 °F -28.3 °F -14.8 °F 71% 30.07 in 10.0 mi NW 13.8 mph - N/A   Clear
12:35 AM -7.6 °F -28.3 °F -14.8 °F 71% 30.08 in 10.0 mi NW 13.8 mph - N/A   Clear
12:54 AM -7.6 °F -30.5 °F -14.8 °F 71% 30.08 in 10.0 mi NW 17.3 mph 21.9 mph N/A   Clear
1:15 AM -7.6 °F -30.5 °F -16.6 °F 65% 30.09 in 10.0 mi NNW 17.3 mph 21.9 mph N/A   Clear
1:35 AM -7.6 °F -29.1 °F -16.6 °F 65% 30.10 in 10.0 mi NNW 15.0 mph 23.0 mph N/A   Clear
1:54 AM -9.4 °F -32.8 °F -18.4 °F 65% 30.11 in 10.0 mi NW 17.3 mph 23.0 mph N/A   Clear
2:15 AM -9.4 °F -32.1 °F -18.4 °F 65% 30.12 in 10.0 mi NNW 16.1 mph - N/A   Clear
2:35 AM -9.4 °F -30.6 °F -18.4 °F 65% 30.13 in 10.0 mi NW 13.8 mph 20.7 mph N/A   Clear
2:54 AM -9.4 °F -29.8 °F -18.4 °F 65% 30.12 in 10.0 mi NW 12.7 mph - N/A   Clear
3:14 AM -9.4 °F -27.9 °F -18.4 °F 65% 30.12 in 10.0 mi NW 10.4 mph - N/A   Clear
3:35 AM -9.4 °F -29.8 °F -18.4 °F 65% 30.11 in 10.0 mi NW 12.7 mph - N/A   Clear
3:54 AM -11.2 °F -32.1 °F -18.4 °F 70% 30.12 in 10.0 mi NW 12.7 mph - N/A   Clear
4:14 AM -11.2 °F -31.1 °F -18.4 °F 70% 30.12 in 10.0 mi NW 11.5 mph - N/A   Clear
4:34 AM -11.2 °F -32.9 °F -20.2 °F 64% 30.12 in 10.0 mi NW 13.8 mph - N/A   Clear
4:54 AM -11.2 °F -32.9 °F -20.2 °F 64% 30.14 in 10.0 mi NW 13.8 mph 18.4 mph N/A   Clear
5:15 AM -11.2 °F -32.1 °F -20.2 °F 64% 30.14 in 10.0 mi NW 12.7 mph - N/A   Clear
5:35 AM -11.2 °F -30.1 °F -20.2 °F 64% 30.14 in 10.0 mi NW 10.4 mph - N/A   Clear
5:54 AM -11.2 °F -32.1 °F -20.2 °F 64% 30.14 in 10.0 mi NW 12.7 mph - N/A   Clear
6:15 AM -13.0 °F -32.4 °F -20.2 °F 70% 30.15 in 10.0 mi NW 10.4 mph - N/A   Clear
6:34 AM -13.0 °F -28.6 °F -20.2 °F 70% 30.15 in 10.0 mi NW 6.9 mph - N/A   Clear
6:54 AM -13.0 °F -30.0 °F -20.2 °F 70% 30.16 in 10.0 mi NW 8.1 mph - N/A   Clear
7:14 AM -13.0 °F -28.6 °F -20.2 °F 70% 30.16 in 10.0 mi NW 6.9 mph - N/A   Clear
7:34 AM -13.0 °F -31.3 °F -20.2 °F 70% 30.17 in 10.0 mi NW 9.2 mph - N/A   Clear
7:54 AM -13.0 °F -30.0 °F -20.2 °F 70% 30.18 in 10.0 mi NW 8.1 mph - N/A   Clear
8:14 AM -13.0 °F -27.0 °F -20.2 °F 70% 30.18 in 10.0 mi WNW 5.8 mph - N/A   Clear
8:34 AM -13.0 °F -30.0 °F -20.2 °F 70% 30.19 in 10.0 mi NW 8.1 mph - N/A   Clear
9:14 AM -11.2 °F -29.0 °F -20.2 °F 64% 30.19 in 10.0 mi NW 9.2 mph - N/A   Clear
9:34 AM -9.4 °F -27.9 °F -20.2 °F 59% 30.19 in 10.0 mi NW 10.4 mph - N/A   Clear
9:54 AM -9.4 °F -27.9 °F -20.2 °F 59% 30.20 in 10.0 mi WNW 10.4 mph - N/A   Clear
10:14 AM -7.6 °F -24.6 °F -20.2 °F 54% 30.21 in 10.0 mi WNW 9.2 mph - N/A   Clear
10:35 AM -5.8 °F -21.2 °F -20.2 °F 50% 30.20 in 10.0 mi NW 8.1 mph - N/A   Clear
10:55 AM -5.8 °F -18.4 °F -20.2 °F 50% 30.20 in 10.0 mi WNW 5.8 mph - N/A   Clear
11:14 AM -5.8 °F -21.2 °F -20.2 °F 50% 30.20 in 10.0 mi West 8.1 mph - N/A   Clear
11:35 AM -4.0 °F -17.8 °F -20.2 °F 46% 30.20 in 10.0 mi WNW 6.9 mph - N/A   Clear
11:55 AM -2.2 °F -18.9 °F -20.2 °F 42% 30.20 in 10.0 mi West 10.4 mph - N/A   Clear
12:14 PM -2.2 °F -18.0 °F -20.2 °F 42% 30.18 in 10.0 mi West 9.2 mph - N/A   Clear
12:34 PM -2.2 °F -16.8 °F -20.2 °F 42% 30.16 in 10.0 mi NW 8.1 mph - N/A   Clear
12:54 PM -0.4 °F -15.7 °F -20.2 °F 39% 30.16 in 10.0 mi WNW 9.2 mph - N/A   Clear
1:14 PM -0.4 °F -16.7 °F -22.0 °F 36% 30.15 in 10.0 mi WNW 10.4 mph - N/A   Clear
1:36 PM -0.4 °F -14.7 °F -22.0 °F 36% 30.14 in 10.0 mi NW 8.1 mph - N/A   Clear
1:54 PM 1.4 °F -13.5 °F -20.2 °F 36% 30.13 in 10.0 mi WNW 9.2 mph - N/A   Clear
2:34 PM 1.4 °F -9.9 °F -20.2 °F 36% 30.13 in 10.0 mi West 5.8 mph - N/A   Clear
2:54 PM 3.2 °F -6.2 °F -20.2 °F 33% 30.13 in 10.0 mi WNW 4.6 mph - N/A   Clear
3:15 PM 1.4 °F -9.9 °F -20.2 °F 36% 30.12 in 10.0 mi WSW 5.8 mph - N/A   Clear
3:34 PM 1.4 °F -9.9 °F -20.2 °F 36% 30.12 in 10.0 mi West 5.8 mph - N/A   Clear
3:54 PM 3.2 °F -7.8 °F -20.2 °F 33% 30.12 in 10.0 mi WSW 5.8 mph - N/A   Clear
4:14 PM 3.2 °F -9.1 °F -18.4 °F 36% 30.12 in 10.0 mi WSW 6.9 mph - N/A   Clear
4:35 PM 1.4 °F -9.9 °F -20.2 °F 36% 30.11 in 10.0 mi West 5.8 mph - N/A   Clear
4:55 PM 1.4 °F -8.3 °F -18.4 °F 39% 30.11 in 10.0 mi WSW 4.6 mph - N/A   Clear
5:14 PM -0.4 °F -8.3 °F -18.4 °F 43% 30.11 in 10.0 mi West 3.5 mph - N/A   Clear
5:34 PM -0.4 °F - -18.4 °F 43% 30.10 in 10.0 mi Calm Calm - N/A   Scattered Clouds
5:59 PM -0.4 °F - -14.8 °F 51% 30.10 in 10.0 mi Calm Calm - N/A   Scattered Clouds
6:34 PM -0.4 °F -8.3 °F -16.6 °F 46% 30.11 in 10.0 mi SW 3.5 mph - N/A   Clear
6:55 PM -2.2 °F -12.5 °F -14.8 °F 55% 30.11 in 10.0 mi SW 4.6 mph - N/A   Clear
7:11 PM -2.2 °F -10.4 °F -14.8 °F 55% 30.10 in 10.0 mi SSW 3.5 mph - N/A   Clear
7:34 PM -2.2 °F -14.2 °F -14.8 °F 55% 30.12 in 10.0 mi SW 5.8 mph - N/A   Clear
7:54 PM -4.0 °F -14.6 °F -14.8 °F 60% 30.12 in 10.0 mi SW 4.6 mph - N/A   Clear
8:14 PM -4.0 °F - -14.8 °F 60% 30.11 in 10.0 mi Calm Calm - N/A   Clear
8:34 PM -4.0 °F -14.6 °F -14.8 °F 60% 30.10 in 10.0 mi SW 4.6 mph - N/A   Clear
8:55 PM -4.0 °F -12.4 °F -14.8 °F 60% 30.10 in 10.0 mi SSW 3.5 mph - N/A   Clear
9:15 PM -4.0 °F - -14.8 °F 60% 30.09 in 10.0 mi Calm Calm - N/A   Clear
9:35 PM -5.8 °F - -14.8 °F 65% 30.09 in 10.0 mi Calm Calm - N/A   Clear
9:55 PM -5.8 °F - -13.0 °F 71% 30.09 in 10.0 mi Calm Calm - N/A   Clear
10:16 PM -4.0 °F - -11.2 °F 71% 30.10 in 10.0 mi Calm Calm - N/A   Clear
10:33 PM -5.8 °F -14.5 °F -11.2 °F 77% 30.09 in 10.0 mi South 3.5 mph - N/A   Clear
10:55 PM -4.0 °F - -13.0 °F 65% 30.09 in 10.0 mi Calm Calm - N/A   Clear
11:14 PM -4.0 °F -12.4 °F -11.2 °F 71% 30.09 in 10.0 mi SSW 3.5 mph - N/A   Clear
11:34 PM -2.2 °F - -11.2 °F 66% 30.10 in 10.0 mi Calm Calm - N/A   Clear
11:55 PM -2.2 °F - -9.4 °F 71% 30.09 in 10.0 mi Calm Calm - N/A   Clear